sat.trackr.live / text

‹ back to catalog

STARLINK-37814

NORAD 69482 · 2026-131E

PAYLOAD ACTIVE UNKNOWN

§ Identity

Operator
Country
US
Launch date
2026-06-11
Launch site
AFWTR
Launch vehicle
Mass (kg)
RCS (m²)

Purposes: comms

External: N2YO · Heavens-Above · Gunter

§ Orbital elements

Epoch: 2026-09-20T00:53:46.568256Z

Period
93.90 min
Inclination
97.2857°
Eccentricity
0.0001678
Mean motion
15.33481245 rev/d
Perigee alt
464.3 km
Apogee alt
466.6 km
Semi-major
6,843.6 km
B*
4.5113e-4
RAAN
283.8666°
Arg perigee
94.9713°
Mean anomaly
265.1722°
Rev number
1,682

§ Raw data

STARLINK-378141 69482U 26131E   26263.03734454  .00014534  00000+0  45113-3 0  99942 69482  97.2857 283.8666 0001678  94.9713 265.1722 15.33481245 16821

JSON: /api/v1/satellites/69482 · /tle

For live sub-satellite position, see the globe view (requires WebGL).

§ Visibility from observer

Set your observer location to see the next 7 days of passes ≥ 10°. The values pass through the URL so the page stays shareable.

No JS? Fill the form by hand. The geolocation button needs JavaScript.